NOAA NWS Hourly Roundups by Site

Regional Weather Roundup for Omaha, NE

To Select Another Site Choose from List

Select Site:  

000
ASUS43 KOAX 292313
RWRNE

WEATHER ROUNDUP FOR NEBRASKA
NATIONAL WEATHER SERVICE OMAHA NE
600 PM CDT FRI SEP 29 2023

NOTES: SATELLITE DATA IS BEING USED TO AUGMENT CLOUD COVER ABOVE
       12000 FEET.
       "FAIR" INDICATES FEW OR NO CLOUDS BELOW 12,000 FEET WITH NO
       SIGNIFICANT WEATHER AND/OR OBSTRUCTIONS TO VISIBILITY.


NEZ001>004-019>022-054>056-300000-
NEBRASKA PANHANDLE

CITY           SKY/WX    TMP DP  RH WIND       PRES   REMARKS
SCOTTSBLUFF    SUNNY     77  54  44 E15       29.92R
ALLIANCE       SUNNY     76  53  44 E10       29.92S
CHADRON        SUNNY     73  55  53 NE9       29.91S
GORDON         SUNNY     73  53  48 E8        29.94R HAZE
KIMBALL        MOSUNNY   76  44  32 SE13      29.97S
SIDNEY         MOSUNNY   77  49  37 E9        29.94S
$$

NEZ057>060-069>072-079>082-300000-
SOUTHWEST NEBRASKA

CITY           SKY/WX    TMP DP  RH WIND       PRES   REMARKS
NORTH PLATTE   SUNNY     81  57  43 NE8       29.88R
GRANT          SUNNY     79  55  44 NE9       29.91R
IMPERIAL       SUNNY     81  53  37 NE8       29.89S
LEXINGTON      SUNNY     85  59  40 N3        29.83S
MCCOOK         SUNNY     86  58  38 NE7       29.84R
OGALLALA       MOSUNNY   78  52  39 E9        29.91R
$$

NEZ005>010-023>029-035>040-094-300000-
NORTH CENTRAL NEBRASKA

CITY           SKY/WX    TMP DP  RH WIND       PRES   REMARKS
VALENTINE      SUNNY     74  55  51 NE9       29.92R
AINSWORTH      SUNNY     72  60  65 NE6       29.92R
BROKEN BOW     SUNNY     83  60  45 N6        29.86R
O`NEILL        SUNNY     80  60  51 NW5       29.87R
ORD            SUNNY     85  63  47 W5        29.82S
THEDFORD       MOSUNNY   75  58  55 NE7       29.92R
$$

NEZ041-046>049-061>064-073>077-083>087-300000-
SOUTH CENTRAL NEBRASKA

CITY           SKY/WX    TMP DP  RH WIND       PRES   REMARKS
GRAND ISLAND   PTSUNNY   92  58  31 S17G26    29.81R HX  91
AURORA         SUNNY     91  58  33 S18G26    29.81R
HASTINGS       SUNNY     91  57  31 S17G28    29.81R
HEBRON         SUNNY     93  58  30 S20G29    29.83R HX  92
HOLDREGE       SUNNY     91  55  30 S13       29.81R
KEARNEY        SUNNY     90  57  32 S13       29.82R
YORK           SUNNY     91  57  31 S18G25    29.82R HX  90
$$

NEZ011>018-030>034-042>045-300000-
NORTHEAST NEBRASKA

CITY           SKY/WX    TMP DP  RH WIND       PRES   REMARKS
NORFOLK        PTSUNNY   91  59  33 S15G23    29.80R HX  90
ALBION         PTSUNNY   89  56  33 SW8       29.81S
BLAIR          SUNNY     93  55  27 S18       29.85R HX  91
COLUMBUS       MOSUNNY   91  59  33 S16       29.82R HX  90
FREMONT        SUNNY     92  54  27 S15G23    29.83R
TEKAMAH        SUNNY     95  55  26 S16G30    29.81R HX  93
WAYNE          PTSUNNY   91  60  34 S13G20    29.81R HX  90
$$

NEZ050>053-065>068-078-088>093-300000-
SOUTHEAST NEBRASKA

CITY           SKY/WX    TMP DP  RH WIND       PRES   REMARKS
LINCOLN        SUNNY     92  60  34 S17G31    29.83R HX  91
OMAHA EPPLEY   MOSUNNY   93  55  27 S21G28    29.83R HX  91
BEATRICE       MOSUNNY   91  60  35 S18       29.85R HX  90
FALLS CITY     SUNNY     92  59  33 S13G29    29.88R HX  91
NEBRASKA CITY  SUNNY     90  58  33 S18G25    29.87R
PLATTSMOUTH    SUNNY     92  60  33 S16G24    29.86R HX  92
$$

NEZ044-045-051>053-067-300000-
OMAHA AREA

CITY           SKY/WX    TMP DP  RH WIND       PRES   REMARKS
OMAHA EPPLEY   MOSUNNY   93  55  27 S21G28    29.83R HX  91
BLAIR          SUNNY     93  55  27 S18       29.85R HX  91
FREMONT        SUNNY     92  54  27 S15G23    29.83R
MILLARD        SUNNY     93  56  28 S14       29.84R HX  91
OFFUTT AFB     MOSUNNY   93  56  28 SE20G26   29.84R HX  91
PLATTSMOUTH    SUNNY     92  60  33 S16G24    29.86R HX  92
WAHOO          SUNNY     92  57  31 S17G26    29.83R HX  90
$$


 

View Past Reports for Omaha, NE.

Products Courtesy of NOAA-NWS
NWS Information Parsing Script by Ken True at Saratoga Weather - Script by SE Lincoln Weather.